TimeEST,TemperatureF,Dew PointF,Humidity,Sea Level PressureIn,VisibilityMPH,Wind Direction,Wind SpeedMPH,Gust SpeedMPH,PrecipitationIn,Events,Conditions,WindDirDegrees,DateUTC
12:53 AM,27.0,24.1,89,30.51,10.0,Calm,Calm,-,N/A,,Clear,0,2012-11-14 05:53:00
1:53 AM,27.0,25.0,92,30.52,10.0,Calm,Calm,-,N/A,,Clear,0,2012-11-14 06:53:00
2:53 AM,25.0,21.9,88,30.53,10.0,Calm,Calm,-,N/A,,Clear,0,2012-11-14 07:53:00
3:53 AM,24.1,23.0,96,30.55,10.0,Calm,Calm,-,N/A,,Clear,0,2012-11-14 08:53:00
4:53 AM,24.1,21.0,88,30.57,10.0,Calm,Calm,-,N/A,,Clear,0,2012-11-14 09:53:00
5:53 AM,21.9,21.9,100,30.58,10.0,Calm,Calm,-,N/A,,Clear,0,2012-11-14 10:53:00
6:53 AM,23.0,21.9,96,30.60,10.0,Calm,Calm,-,N/A,,Clear,0,2012-11-14 11:53:00
7:53 AM,28.0,25.0,88,30.61,10.0,Calm,Calm,-,N/A,,Clear,0,2012-11-14 12:53:00
8:53 AM,34.0,28.0,79,30.62,10.0,North,5.8,-,N/A,,Clear,10,2012-11-14 13:53:00
9:53 AM,36.0,27.0,70,30.62,10.0,East,5.8,-,N/A,,Clear,80,2012-11-14 14:53:00
10:53 AM,39.0,24.1,55,30.61,10.0,ENE,9.2,-,N/A,,Partly Cloudy,60,2012-11-14 15:53:00
11:53 AM,41.0,21.9,47,30.58,10.0,NE,12.7,-,N/A,,Clear,50,2012-11-14 16:53:00
12:53 PM,41.0,21.0,45,30.56,10.0,ENE,11.5,-,N/A,,Clear,70,2012-11-14 17:53:00
1:53 PM,43.0,21.0,42,30.54,10.0,NNE,8.1,-,N/A,,Clear,20,2012-11-14 18:53:00
2:53 PM,42.1,21.0,43,30.55,10.0,NE,11.5,-,N/A,,Clear,50,2012-11-14 19:53:00
3:53 PM,39.9,21.0,47,30.55,10.0,NE,8.1,-,N/A,,Clear,50,2012-11-14 20:53:00
4:53 PM,37.0,21.0,52,30.56,10.0,NE,5.8,-,N/A,,Clear,50,2012-11-14 21:53:00
5:53 PM,33.1,21.0,61,30.57,10.0,NE,3.5,-,N/A,,Clear,40,2012-11-14 22:53:00
6:53 PM,27.0,23.0,85,30.57,10.0,Calm,Calm,-,N/A,,Clear,0,2012-11-14 23:53:00
7:53 PM,27.0,21.9,81,30.57,10.0,NNW,3.5,-,N/A,,Clear,340,2012-11-15 00:53:00
8:53 PM,30.0,21.9,72,30.56,10.0,NNE,4.6,-,N/A,,Clear,30,2012-11-15 01:53:00
9:53 PM,25.0,23.0,92,30.56,10.0,Calm,Calm,-,N/A,,Clear,0,2012-11-15 02:53:00
10:53 PM,23.0,21.9,96,30.55,10.0,Calm,Calm,-,N/A,,Clear,0,2012-11-15 03:53:00
11:53 PM,23.0,19.9,88,30.54,10.0,Calm,Calm,-,N/A,,Clear,0,2012-11-15 04:53:00